Date,TemperatureHighF,TemperatureAvgF,TemperatureLowF,DewpointHighF,DewpointAvgF,DewpointLowF,HumidityHigh,HumidityAvg,HumidityLow,PressureMaxIn,PressureMinIn,WindSpeedMaxMPH,WindSpeedAvgMPH,GustSpeedMaxMPH,PrecipitationSumIn
2013-3-1,66.7,63.9,60.3,60.7,49.6,44.3,86,51,40,29.85,29.77,9,5,13,0.00
2013-3-2,66.0,59.7,55.6,46.4,39.9,32.5,53,38,25,29.91,29.83,16,7,18,0.00
2013-3-3,63.0,56.9,52.5,46.5,40.6,37.2,68,45,29,30.03,29.85,13,6,15,0.00
2013-3-4,63.9,55.7,45.9,41.2,36.2,30.9,58,39,21,30.09,29.97,11,4,11,0.00
2013-3-5,73.9,56.2,0.0,54.9,43.4,0.0,74,46,36,30.06,29.94,7,2,8,0.00
2013-3-6,77.2,66.1,0.0,63.8,49.5,0.0,92,51,15,29.97,29.83,16,6,16,0.00
2013-3-7,68.5,59.9,50.2,56.4,42.0,32.9,82,43,22,30.03,29.94,11,5,13,0.00
2013-3-8,71.4,64.3,56.5,56.1,50.0,42.0,91,54,28,30.06,29.97,8,3,10,0.00
2013-3-9,73.4,66.1,58.5,56.1,50.9,46.9,83,50,35,30.03,29.97,10,4,12,0.00
2013-3-10,74.7,70.5,66.7,60.7,52.6,49.0,65,44,34,30.03,29.91,9,6,11,0.00
2013-3-11,78.4,72.9,69.4,61.0,57.4,54.5,66,50,38,29.94,29.80,11,5,11,0.00
2013-3-12,80.1,74.3,71.4,70.2,65.0,59.5,79,67,54,29.85,29.77,8,4,14,0.00
2013-3-13,73.2,67.1,59.2,66.9,56.0,41.4,93,63,27,29.94,29.83,10,5,15,0.00
2013-3-14,69.6,62.7,57.2,55.8,45.8,34.7,85,47,20,30.03,29.91,12,6,15,0.00
2013-3-15,70.7,63.7,55.8,52.2,46.6,39.3,67,45,32,30.06,29.94,8,4,10,0.00
2013-3-16,76.3,66.7,0.0,56.1,51.3,0.0,80,51,33,30.00,29.88,6,2,8,0.00
2013-3-17,77.9,70.5,63.1,59.5,55.7,51.7,74,52,38,29.91,29.80,6,2,13,0.00
2013-3-18,80.8,73.6,69.1,71.2,64.9,58.7,97,69,52,29.83,29.71,9,4,11,0.14
2013-3-19,79.2,73.2,69.8,71.5,68.5,60.1,98,83,45,29.74,29.56,8,2,10,0.00
2013-3-20,82.0,73.5,67.1,71.5,66.0,54.0,98,75,38,29.65,29.47,13,2,16,0.00
2013-3-21,72.0,67.8,64.4,64.2,54.2,44.2,94,57,29,29.59,29.50,10,4,12,0.00
2013-3-22,77.2,70.4,61.2,70.9,57.9,49.2,89,58,39,29.62,29.53,6,2,11,0.00
2013-3-23,84.0,77.3,72.3,76.8,73.4,70.9,98,86,66,29.59,29.38,8,3,15,0.00
2013-3-24,89.4,80.5,74.5,75.6,70.2,63.1,98,69,34,29.44,29.21,9,4,13,0.00
2013-3-25,78.4,74.8,67.5,74.8,59.0,39.3,97,57,22,32.28,25.28,11,5,15,0.00
2013-3-26,67.1,62.4,55.2,42.5,36.3,29.2,41,28,15,27.32,25.28,14,9,18,0.00
2013-3-27,66.6,58.5,48.9,45.4,40.5,33.6,54,41,28,25.28,25.28,10,5,15,0.00
2013-3-28,70.5,62.9,54.9,46.4,41.5,31.3,53,36,17,25.28,25.28,8,4,11,0.00
2013-3-29,74.1,66.6,59.4,50.5,46.4,38.3,48,39,31,25.28,25.28,9,4,10,0.00
2013-3-30,73.9,68.6,66.4,51.5,49.1,46.9,44,40,31,25.28,25.28,7,4,10,0.00
2013-3-31,81.7,73.7,68.0,66.1,59.4,50.7,75,54,40,25.28,25.28,8,4,11,0.00